National Weather Service United States Department of Commerce

Latest Hourly Weather Roundup

TOPSWRTT 000
TTAA00 KICT 221112

Wichita AWIPS Roundup
National Weather Service Wichita KS
500 AM CST SAT FEB 22 2020

....Central Kansas....
  
CITY           SKY/WX    TMP DP  RH WIND       PRES   REMARKS
RUSSELL        CLEAR     30  25  81 S13       30.10F WCI  20          
SALINA         CLEAR     33  24  69 S13       30.17S WCI  24          
GREAT BEND     CLEAR     33  26  75 S14       30.12F WCI  23          
ELLSWORTH      CLEAR     34  25  69 S7        30.14F WCI  28          
LYONS          FAIR      31  26  78 S10       30.16F WCI  23          
MCPHERSON      CLEAR     32  27  80 S12       30.18S WCI  23          
HAYS           CLEAR     26  24  92 S5        30.12S WCI  20          

....South Central Kansas....
  
CITY           SKY/WX    TMP DP  RH WIND       PRES   REMARKS
HUTCHINSON     CLEAR     32  24  72 S9        30.18F WCI  24          
NEWTON         CLEAR     34  23  64 S17       30.20F WCI  23          
KINGMAN        CLEAR     34  27  75 S8        30.18F WCI  27          
WICHITA (ICT)  MOCLDY    33  21  61 S14       30.22F WCI  23          
JABARA ARPT    CLEAR     34  20  56 S14G22    30.22F WCI  25          
BEECH ARPT     FAIR      32  20  62 S12       30.23S WCI  23          
MCCONNELL AFB  CLEAR     33  19  57 S14       30.22F WCI  23          
BENTON         FAIR      31  20  62 S9        30.23F WCI  23          
EL DORADO      FAIR      34  21  60 SW14      30.23F WCI  24          
AUGUSTA        FAIR      32  21  64 S9        30.24S WCI  24          
HARPER         NOT AVBL                                               
WELLINGTON     CLEAR     32  21  64 S10       30.23F WCI  24          
WINFIELD       CLEAR     34  20  56 S12       30.27S WCI  25          
 
....Southeast Kansas....
  
CITY           SKY/WX    TMP DP  RH WIND       PRES   REMARKS
EUREKA         CLEAR     29  18  63 S12       30.27S WCI  19          
IOLA           FAIR      32  19  58 S10       30.30F WCI  23          
CHANUTE        CLEAR     33  19  56 S13       30.30S WCI  24          
PARSONS        CLEAR     31  20  63 S6        30.33R WCI  25          
COFFEYVILLE    CLEAR     27  20  75 SE6       30.33S WCI  20          
INDEPENDENCE   CLEAR     29  19  67 S10       30.33R WCI  20          
FORT SCOTT     CLEAR     30  19  64 S9        30.30S WCI  22          
PITTSBURG      CLEAR     30  19  62 S8        30.32S WCI  23          

....Western Kansas....
  
CITY           SKY/WX    TMP DP  RH WIND       PRES   REMARKS
GOODLAND       MOCLDY    27  18  69 W6        30.05S WCI  20          
HILL CITY      CLEAR     22  20  92 W7        30.09R WCI  13          
LIBERAL        CLEAR     30  27  88 S8        30.09F WCI  22          
GARDEN CITY    CLEAR     27  25  92 S3        30.07F                  
DODGE CITY     CLEAR     34  28  79 S13       30.09F WCI  25          
PRATT          CLEAR     30  24  79 S9        30.16F WCI  21          
MEDICINE LODGE   N/A     30  25  81 SE8       30.18F WCI  22          

....Northeast Kansas....
  
CITY           SKY/WX    TMP DP  RH WIND       PRES   REMARKS
CONCORDIA      CLEAR     33  24  69 SW9       30.13S WCI  25          
TOPEKA         CLEAR     33  17  51 S3        30.23F                  
MANHATTAN      CLEAR     30  21  69 S5        30.19S WCI  25          
LAWRENCE       CLEAR     32  16  51 S7        30.26S WCI  26          
OLATHE         CLEAR     27  16  63 S6        30.27S WCI  20          
EMPORIA        CLEAR     30  20  66 S14       30.23S WCI  19          

....Oklahoma....
  
CITY           SKY/WX    TMP DP  RH WIND       PRES   REMARKS
GAGE           CLEAR     36  27  69 S20       30.15F WCI  25          
PONCA CITY     CLEAR     37  20  50 S9        30.27F WCI  30          
BARTLESVILLE   CLEAR     26  20  77 S6        30.35R WCI  19          
TULSA          MOCLDY    34  18  52 S8        30.35R WCI  27          
OKLAHOMA CITY  MOCLDY    33  23  66 S8        30.29F WCI  26          

Note: "fair" indicates few or no clouds below 12,000 feet with no
significant weather and/or obstructions to visibility.